350  
SXUS55 KTWC 240245  
OSOTWC  
 
WEATHER ROUNDUP FOR SOUTHEAST ARIZONA  
NATIONAL WEATHER SERVICE TUCSON AZ  
745 PM MST SAT JUN 23 2018  
 
AZZ504>506-514-240345-  
LOCATION SKY/WX TMP DP RH WIND PRES REMARKS  
TUCSON CLEAR 98 42 14 W10 29.83S  
DAVIS-MONTHAN CLEAR 99 43 14 W9 29.82R  
CHILDRENS PARK N/A N/A N/A 12 W7 PIMA CO DEQ  
ALVERNON/22ND N/A 101 N/A N/A W7 PIMA CO DEQ  
CHERRY/GLENN N/A N/A N/A N/A N/A PIMA CO DEQ  
TANGERINE N/A 102 N/A N/A W8 PIMA CO DEQ  
CONTL RANCH N/A 103 38 11 W7 PIMA CO DEQ  
GRANT/1ST N/A 101 41 13 W6 PIMA CO DEQ  
CRAYCROFT/22ND N/A 100 42 14 SW8 PIMA CO DEQ  
GOLFLINKS/KOLB N/A N/A N/A N/A N/A PIMA CO DEQ  
AJO/12TH N/A 102 44 14 SW8 PIMA CO DEQ  
FAIRGROUNDS N/A 97 N/A N/A SW14 PIMA CO DEQ  
SAGUARO N/A 101 44 14 W5G13 *SABINO CYN  
SAN CARLOS N/A 100 37 11 W10G22 *SAN CARLOS  
GREEN VALLEY N/A 98 46 17 SW9 PIMA CO DEQ  
HORSE CAMP CYN N/A 93 35 13 W16G28 *ARAVAIPA CYN  
RINCON MTNS N/A 70 42 36 W4G15 *NR MANNING CAMP  

 
 
AZZ509>511-240345-  
LOCATION SKY/WX TMP DP RH WIND PRES REMARKS  
SAFFORD CLEAR 97 32 10 NW17 29.80R  
STRAY HORSE N/A 76 25 15 W14G26 *  
TRAIL CABIN N/A 85 31 14 W7G21 *N OF GRANVILLE  
BLACK HILLS N/A 96 36 12 NW12G23 *N OF FT THOMAS  
DRY LAKE N/A 75 30 19 W6G17 *NATANES MTNS  
NOON CREEK N/A 87 36 16 SW5G13 *PINALENO MTNS  
COLUMBINE N/A 68 32 26 W7G14 *PINALENO MTNS  
GUTHRIE N/A 84 28 13 W18G34 *SW OF GUTHRIE  

 
 
AZZ502-503-513-240345-  
LOCATION SKY/WX TMP DP RH WIND PRES REMARKS  
NOGALES CLEAR 89 52 28 SW14 29.95S  
SELLS N/A 99 40 13 SW9G17 *  
SASABE N/A 95 48 20 SW10G17 *ALTAR VLY  
HOPKINS N/A 78 48 35 W9G20 *SANTA RITA MTNS  
CARR CYN N/A 81 47 30 SW2 *W OF HEREFORD  

 
 
AZZ507-508-512-240345-  
LOCATION SKY/WX TMP DP RH WIND PRES REMARKS  
SIERRA VISTA CLEAR 87 46 23 W14 30.01S  
DOUGLAS CLEAR 89 49 25 SW21G30 29.93S  
EMPIRE MTNS N/A 87 47 25 W8G17 *LAS CIENEGAS NCA  
MULESHOE RANCH N/A 92 36 14 W11G26 *PRESERVE  
HEADQUARTERS N/A 87 34 15 W7G17 *CHIRICAHUA MTNS  

 
   
............................NOTES..........................
 
 
THIS IS AN AUTOMATED COLLECTIVE WITH MINIMAL QUALITY CONTROL.  
PIMA CO DEQ SITES HAVE NONSTANDARD WIND SENSOR HEIGHTS.  
PIMA CO DEQ SITES DO NOT REPORT WIND GUSTS.  
* INDICATES WIND SENSORS LOCATED AT 20 FEET INSTEAD OF 33 FEET.   
.............................KEY...........................
 
 
SKY/WX - SKY CONDITION/WEATHER  
TMP - TEMPERATURE IN FAHRENHEIT  
DP - DEWPOINT IN FAHRENHEIT  
RH - RELATIVE HUMIDITY IN PERCENT  
WIND - DIRECTION AND SPEED IN MILES PER HOUR (MPH)  
VRB - VARIABLE WIND DIRECTION  
PRES - MEAN SEA LEVEL PRESSURE IN INCHES OF MERCURY  
F - FALLING PRESSURE R - RISING PRESSURE  
S - STEADY PRESSURE  
VSB - VISIBILITY IN MILES  
HX - HEAT INDEX IN FAHRENHEIT  
WCI - WIND CHILL INDEX IN FAHRENHEIT  
N/A - NOT AVAILABLE  
AFB - AIR FORCE BASE  
DAVIS-MONTHAN IS DAVIS-MONTHAN AIR FORCE BASE  
CYN - CANYON  
MTNS - MOUNTAINS  
NCA - NATIONAL CONSERVATION AREA  
NR - NEAR  
VLY - VALLEY  
CONTL - CONTINENTAL  
PIMA CO DEQ - PIMA COUNTY DEPT OF ENVIRONMENTAL QUALITY  
 
CLICK HERE TO GO TO PREVIOUS BULLETINS.

The Nexlab AZ Page Main Text Page